TimePST,TemperatureF,Dew PointF,Humidity,Sea Level PressureIn,VisibilityMPH,Wind Direction,Wind SpeedMPH,Gust SpeedMPH,PrecipitationIn,Events,Conditions,WindDirDegrees,DateUTC
12:15 AM,55.4,37.4,51,30.01,10.0,ESE,8.1,-,N/A,,Clear,110,2012-11-16 08:15:00
12:35 AM,55.4,35.6,47,30.01,10.0,ESE,8.1,-,N/A,,Clear,110,2012-11-16 08:35:00
12:55 AM,55.4,35.6,47,30.00,10.0,ESE,5.8,-,N/A,,Clear,110,2012-11-16 08:55:00
1:15 AM,55.4,35.6,47,30.00,10.0,Calm,Calm,-,N/A,,Clear,0,2012-11-16 09:15:00
1:35 AM,55.4,35.6,47,30.00,10.0,Calm,Calm,-,N/A,,Clear,0,2012-11-16 09:35:00
1:55 AM,51.8,35.6,54,30.00,10.0,Calm,Calm,-,N/A,,Clear,0,2012-11-16 09:55:00
2:15 AM,51.8,35.6,54,30.00,10.0,Calm,Calm,-,N/A,,Clear,0,2012-11-16 10:15:00
2:35 AM,50.0,35.6,58,30.00,10.0,Calm,Calm,-,N/A,,Clear,0,2012-11-16 10:35:00
2:55 AM,48.2,37.4,66,30.00,10.0,Calm,Calm,-,N/A,,Clear,0,2012-11-16 10:55:00
3:15 AM,51.8,35.6,54,30.00,10.0,Calm,Calm,-,N/A,,Mostly Cloudy,0,2012-11-16 11:15:00
3:35 AM,51.8,35.6,54,30.00,10.0,Calm,Calm,-,N/A,,Overcast,0,2012-11-16 11:35:00
3:55 AM,53.6,37.4,54,29.99,10.0,Calm,Calm,-,N/A,,Overcast,0,2012-11-16 11:55:00
4:15 AM,53.6,35.6,51,30.00,10.0,Calm,Calm,-,N/A,,Overcast,0,2012-11-16 12:15:00
4:35 AM,53.6,35.6,51,30.00,10.0,Calm,Calm,-,N/A,,Overcast,0,2012-11-16 12:35:00
4:55 AM,53.6,35.6,51,30.00,10.0,Calm,Calm,-,N/A,,Overcast,0,2012-11-16 12:55:00
5:15 AM,53.6,37.4,54,30.00,10.0,Calm,Calm,-,N/A,,Overcast,0,2012-11-16 13:15:00
5:35 AM,53.6,37.4,54,30.00,10.0,Calm,Calm,-,N/A,,Overcast,0,2012-11-16 13:35:00
5:55 AM,51.8,37.4,58,30.00,10.0,Calm,Calm,-,N/A,,Overcast,0,2012-11-16 13:55:00
6:15 AM,53.6,37.4,54,30.00,10.0,Calm,Calm,-,N/A,,Overcast,0,2012-11-16 14:15:00
6:35 AM,53.6,37.4,54,30.00,10.0,Calm,Calm,-,N/A,,Overcast,0,2012-11-16 14:35:00
6:55 AM,53.6,37.4,54,29.99,10.0,East,6.9,-,N/A,,Overcast,90,2012-11-16 14:55:00
7:15 AM,53.6,37.4,54,30.00,10.0,ESE,3.5,-,N/A,,Overcast,120,2012-11-16 15:15:00
7:35 AM,53.6,39.2,58,30.00,10.0,ESE,8.1,-,N/A,,Mostly Cloudy,110,2012-11-16 15:35:00
7:55 AM,53.6,39.2,58,30.01,10.0,ESE,8.1,-,N/A,,Mostly Cloudy,110,2012-11-16 15:55:00
8:15 AM,53.6,39.2,58,30.02,10.0,ESE,5.8,-,N/A,,Mostly Cloudy,120,2012-11-16 16:15:00
8:35 AM,53.6,41.0,62,30.02,10.0,East,6.9,-,N/A,,Mostly Cloudy,100,2012-11-16 16:35:00
8:55 AM,53.6,41.0,62,30.02,10.0,East,6.9,-,N/A,,Mostly Cloudy,100,2012-11-16 16:55:00
9:15 AM,55.4,42.8,63,30.02,10.0,Calm,Calm,-,N/A,,Overcast,0,2012-11-16 17:15:00
9:35 AM,55.4,42.8,63,30.03,10.0,Calm,Calm,-,N/A,,Mostly Cloudy,0,2012-11-16 17:35:00
9:55 AM,55.4,44.6,67,30.03,10.0,Calm,Calm,-,N/A,,Mostly Cloudy,0,2012-11-16 17:55:00
10:15 AM,55.4,42.8,63,30.03,10.0,Calm,Calm,-,N/A,,Mostly Cloudy,0,2012-11-16 18:15:00
10:35 AM,55.4,44.6,67,30.03,9.0,Calm,Calm,-,N/A,,Mostly Cloudy,0,2012-11-16 18:35:00
10:55 AM,57.2,44.6,63,30.04,10.0,Calm,Calm,-,N/A,,Mostly Cloudy,0,2012-11-16 18:55:00
11:15 AM,57.2,44.6,63,30.03,10.0,Calm,Calm,-,N/A,,Mostly Cloudy,0,2012-11-16 19:15:00
11:35 AM,57.2,44.6,63,30.03,10.0,Calm,Calm,-,N/A,,Mostly Cloudy,0,2012-11-16 19:35:00
12:15 PM,55.4,44.6,67,30.02,10.0,Calm,Calm,-,N/A,,Overcast,0,2012-11-16 20:15:00
12:35 PM,55.4,44.6,67,30.02,6.0,Calm,Calm,-,N/A,,Overcast,0,2012-11-16 20:35:00
12:55 PM,53.6,46.4,77,30.01,5.0,Calm,Calm,-,N/A,,Overcast,0,2012-11-16 20:55:00
1:15 PM,53.6,48.2,82,30.00,10.0,Calm,Calm,-,N/A,,Overcast,0,2012-11-16 21:15:00
1:35 PM,53.6,48.2,82,30.00,10.0,Calm,Calm,-,N/A,,Overcast,0,2012-11-16 21:35:00
2:15 PM,55.4,48.2,77,29.99,10.0,Calm,Calm,-,N/A,,Overcast,0,2012-11-16 22:15:00
2:35 PM,57.2,48.2,72,29.98,10.0,East,3.5,-,N/A,,Overcast,100,2012-11-16 22:35:00
2:55 PM,57.2,48.2,72,29.97,10.0,ESE,6.9,-,N/A,,Overcast,110,2012-11-16 22:55:00
3:15 PM,57.2,48.2,72,29.97,10.0,ESE,8.1,-,N/A,,Mostly Cloudy,110,2012-11-16 23:15:00
3:35 PM,57.2,48.2,72,29.98,10.0,SE,3.5,-,N/A,,Mostly Cloudy,130,2012-11-16 23:35:00
3:55 PM,57.2,48.2,72,29.98,10.0,ESE,5.8,-,N/A,,Overcast,120,2012-11-16 23:55:00
4:15 PM,57.2,48.2,72,29.98,10.0,Calm,Calm,-,N/A,,Overcast,0,2012-11-17 00:15:00
4:35 PM,57.2,48.2,72,29.98,7.0,Calm,Calm,-,N/A,,Overcast,0,2012-11-17 00:35:00
4:55 PM,55.4,50.0,82,29.97,10.0,Calm,Calm,-,N/A,,Overcast,0,2012-11-17 00:55:00
5:15 PM,55.4,50.0,82,29.97,10.0,Calm,Calm,-,N/A,,Overcast,0,2012-11-17 01:15:00
5:35 PM,55.4,50.0,82,29.97,10.0,Calm,Calm,-,N/A,,Overcast,0,2012-11-17 01:35:00
5:55 PM,55.4,50.0,82,29.97,10.0,Calm,Calm,-,N/A,,Overcast,0,2012-11-17 01:55:00
6:15 PM,55.4,51.8,88,29.96,8.0,Calm,Calm,-,N/A,,Overcast,0,2012-11-17 02:15:00
6:35 PM,53.6,51.8,94,29.97,3.0,Calm,Calm,-,N/A,,Overcast,0,2012-11-17 02:35:00
6:55 PM,53.6,51.8,94,29.97,2.0,Calm,Calm,-,N/A,,Overcast,0,2012-11-17 02:55:00
7:15 PM,53.6,51.8,94,29.97,3.0,Calm,Calm,-,N/A,,Mostly Cloudy,0,2012-11-17 03:15:00
7:35 PM,53.6,51.8,94,29.96,3.0,Calm,Calm,-,N/A,,Mostly Cloudy,0,2012-11-17 03:35:00
7:55 PM,53.6,51.8,94,29.96,10.0,Calm,Calm,-,N/A,,Mostly Cloudy,0,2012-11-17 03:55:00
8:15 PM,53.6,51.8,94,29.95,9.0,East,4.6,-,N/A,,Overcast,80,2012-11-17 04:15:00
8:35 PM,53.6,51.8,94,29.95,10.0,East,5.8,-,N/A,,Mostly Cloudy,90,2012-11-17 04:35:00
8:55 PM,53.6,51.8,94,29.95,9.0,East,8.1,-,N/A,,Mostly Cloudy,90,2012-11-17 04:55:00
9:15 PM,53.6,51.8,94,29.95,6.0,Calm,Calm,-,N/A,,Overcast,0,2012-11-17 05:15:00
9:35 PM,53.6,51.8,94,29.95,10.0,ESE,8.1,-,N/A,,Overcast,110,2012-11-17 05:35:00
9:55 PM,53.6,51.8,94,29.95,9.0,East,6.9,-,N/A,,Mostly Cloudy,100,2012-11-17 05:55:00
10:15 PM,53.6,51.8,94,29.94,10.0,ESE,5.8,-,N/A,,Mostly Cloudy,110,2012-11-17 06:15:00
10:35 PM,53.6,51.8,94,29.94,10.0,ESE,8.1,-,N/A,,Mostly Cloudy,120,2012-11-17 06:35:00
10:55 PM,53.6,51.8,94,29.94,10.0,ESE,8.1,-,N/A,,Overcast,120,2012-11-17 06:55:00
11:15 PM,53.6,51.8,94,29.94,10.0,SE,6.9,-,N/A,,Overcast,130,2012-11-17 07:15:00
11:35 PM,53.6,51.8,94,29.94,10.0,SE,6.9,-,N/A,,Overcast,130,2012-11-17 07:35:00
11:55 PM,53.6,51.8,94,29.93,6.0,SE,8.1,-,N/A,,Overcast,140,2012-11-17 07:55:00